Printer-friendly version

IAU Minor Planet Center

Minor Planet Center

MPEC 2008-T117: 2008 TP26

The following Minor Planet Electronic Circular may be linked-to from your own Web pages, but must not otherwise be redistributed electronically.


Read MPEC 2008-T116 Read MPEC 2008-T118


M.P.E.C. 2008-T117                               Issued 2008 Oct. 10, 19:11 UT

     The Minor Planet Electronic Circulars contain information on unusual
         minor planets and routine data on comets.  They are published
   on behalf of Commission 20 of the International Astronomical Union by the
          Minor Planet Center, Smithsonian Astrophysical Observatory,
                          Cambridge, MA 02138, U.S.A.

             Prepared using the Tamkin Foundation Computer Network

                              MPC@CFA.HARVARD.EDU
          URL http://www.cfa.harvard.edu/iau/mpc.html  ISSN 1523-6714

                                   2008 TP26

Observations:
     K08T26P* C2008 10 09.35087 01 47 51.79 +20 41 35.9          22.0 V ET117G96
     K08T26P  C2008 10 09.35669 01 47 49.70 +20 41 43.8          22.5 V ET117G96
     K08T26P  C2008 10 09.36250 01 47 47.79 +20 41 50.7          21.2 V ET117G96
     K08T26P  C2008 10 09.36831 01 47 45.85 +20 41 57.9          21.9 V ET117G96
     K08T26P  C2008 10 09.40289 01 47 33.98 +20 42 41.3          21.1 V ET117G96
     K08T26P  C2008 10 09.40434 01 47 33.52 +20 42 43.2          21.6 V ET117G96
     K08T26P  C2008 10 09.40572 01 47 33.05 +20 42 45.4          21.6 V ET117G96
     K08T26P  C2008 10 09.48979 01 47 04.60 +20 44 26.2          21.3 R ET117H01
     K08T26P  C2008 10 09.49417 01 47 03.13 +20 44 31.5          20.9 R ET117H01
     K08T26P  C2008 10 10.32363 01 42 37.11 +21 01 34.2          21.0 V ET117G96
     K08T26P  C2008 10 10.32575 01 42 36.46 +21 01 36.3          21.7 V ET117G96
     K08T26P  C2008 10 10.32793 01 42 35.72 +21 01 39.2          22.0 V ET117G96
     K08T26P  C2008 10 10.33006 01 42 35.02 +21 01 40.8          21.8 V ET117G96

Observer details:
G96 Mt. Lemmon Survey.  Observer A. Boattini.  Measurers E. C. Beshore,
    A. Boattini, G. J. Garradd, A. R. Gibbs, A. D. Grauer, R. E. Hill,
    R. A. Kowalski, S. M. Larson, R. H. McNaught.  1.5-m reflector + CCD.
H01 Magdalena Ridge Observatory, Socorro.  Observer W. H. Ryan.  2.4-m f/8.9
    reflector + CCD.

Orbital elements:
2008 TP26                                                Earth MOID = 0.0671 AU
Epoch 2008 Nov. 30.0 TT = JDT 2454800.5                 MPC
M 130.25692              (2000.0)            P               Q
n   0.82836916     Peri.  245.35601     -0.21441437     +0.97532530
a   1.1228458      Node    12.60566     -0.78616750     -0.14036968
e   0.3093803      Incl.   13.94744     -0.57962672     -0.17040221
P   1.19           H   23.7           G   0.15           U   9
Residuals in seconds of arc
081009 G96  0.3+  0.1-    081009 G96  0.2+  0.1-    081010 G96  0.2+  0.0
081009 G96  1.1-  0.4+    081009 G96  0.2+  0.4+    081010 G96  0.1+  0.3+
081009 G96  0.0   0.1-    081009 H01  0.0   0.1-    081010 G96  0.3+  0.6-
081009 G96  0.7+  0.2-    081009 H01  0.1-  0.0
081009 G96  0.3-  0.2-    081010 G96  0.6-  0.4+

Ephemeris:
2008 TP26                a,e,i = 1.12, 0.31, 14                  q = 0.7755
Date    TT    R. A. (2000) Decl.     Delta      r     Elong.  Phase     V
2008 10 11    01 39.04   +21 14.6    0.227    1.218   163.7    13.3    21.7
2008 10 12    01 33.87   +21 32.2    0.231    1.222   164.7    12.4    21.7
2008 10 13    01 28.84   +21 48.2    0.235    1.227   165.5    11.7    21.7
2008 10 14    01 23.96   +22 02.6    0.239    1.231   166.0    11.3    21.7
2008 10 15    01 19.24   +22 15.6    0.244    1.235   166.3    11.1    21.8
2008 10 16    01 14.68   +22 27.1    0.249    1.240   166.2    11.0    21.8
2008 10 17    01 10.28   +22 37.2    0.254    1.244   166.0    11.2    21.9
2008 10 18    01 06.06   +22 46.1    0.259    1.248   165.5    11.6    22.0
2008 10 19    01 02.00   +22 53.8    0.264    1.252   164.8    12.1    22.0
2008 10 20    00 58.12   +23 00.5    0.269    1.257   163.9    12.7    22.1
2008 10 21    00 54.41   +23 06.1    0.275    1.261   163.0    13.4    22.2

Timothy B. Spahr             (C) Copyright 2008 MPC           M.P.E.C. 2008-T117

Read MPEC 2008-T116 Read MPEC 2008-T118


Our Web policy. Index to the CBAT/MPC/ICQ pages.


Valid HTML 4.01!